POPSAT HIP 1

导读

POPSAT‑HIP 1是新加坡(SG)于2014年6月19日发射的小型技术试验卫星,作为新加坡太空产业早期发展阶段的技术验证项目,它依托当地空间技术领域积累开展相关技术测试任务。该卫星的发射推动了新加坡后续微小卫星技术的迭代,也为东南亚地区商业航天发展积累了实践经验,是新加坡布局空间技术领域的重要尝试。

基本信息
目录编号:
40028
目录名称:
POPSAT HIP 1
国际标识:
2014-033U
轨道中心:
EARTH
卫星名称:
POPSAT HIP 1
卫星全名:
--
卫星状态:
在轨 (已飞行4461 天)
发射日期:
2014-06-19 UTC
国别 :
新加坡 (SG)
星等 :
--
轨道信息
数据来源 国际轨道数据
星历时间: 2026-09-05T13:20:54+0800
5小时前
查看轨道信息
半长轴: 6895.708km
偏心率: 0.0004851
轨道倾角: 98.100°
近地点辐角 285.607°
升交点赤经 264.400°
平近点角 74.463°
近地点: 514.225km
远地点: 520.917km
周期: 94.979分钟
每日圈数: 15.161233
详细信息
使用方式:
暂无
2D轨道图
3D轨道图
轨道高度分析图
轨道倾角分析图
轨道综合分析图
查看轨道综合分析图
交会数据列表
事件ID 空间交会对象 最接近时刻(TCA) 交会距离 交会风险概率(CRP) 交会风险指数(CRI) 操作
CDM_260907-014804-002805-814322
2026-09-07T
01:48:51+0000
0.615 km
远距离
9.083761E-5 中风险 0.74
CDM_260901-112204-002806-386721
2026-09-01T
11:22:32+0000
2.878 km
极远距离
1.281148E-6 低风险 0.37